Weather History for Rolla, ND

Change the Weather History Date:

Saturday, November 26, 2011

  Actual Average (KRUG) Record (KRUG)
Temperature  
Mean Temperature 26 °F -  
Max Temperature 32 °F 27 °F 59 °F (1962)
Min Temperature 21 °F 11 °F -17 °F (1985)
Degree Days  
Heating Degree Days 38    
Moisture  
Dew Point 26 °F    
Average Humidity 91    
Maximum Humidity 100    
Minimum Humidity 74    
Precipitation  
Precipitation 0.09 in - - ()
Sea Level Pressure  
Sea Level Pressure 30.10 in    
Wind  
Wind Speed 14 mph (NW)    
Max Wind Speed 31 mph    
Max Gust Speed 45 mph    
Visibility 9 miles    
Events Rain , Snow    
Averages and records for this station are not official NWS values.
T = Trace of Precipitation, MM = Missing Value Source: NWS Daily Summary

Daily Weather History Graph

Daily Weather History Graph

Search for Another Location

Airport:

Trip Planner

Search our weather history database for the weather conditions in past years. The results will help you decide how hot, cold, wet, or windy it might be!

Date:

Astronomy

Nov. 26, 2011 Rise Set
Actual Time 8:03 AM CST 4:47 PM CST
Civil Twilight 7:27 AM CST 5:23 PM CST
Nautical Twilight 6:48 AM CST 6:02 PM CST
Astronomical Twilight 6:10 AM CST 6:40 PM CST
Moon 9:41 AM CST (11/26) 6:15 PM CST (11/26)
Length of Visible Light 9h 55m
Length of Day
8h 43m
Waxing Crescent, 3% of the Moon is Illuminated
Nov 26
Waxing Crescent
Dec 2
First Quarter
Dec 10
Full
Dec 17
Last Quarter
Dec 24
New

Hourly Weather History & Observations

Time (CST) Temp. Windchill Dew Point Humidity Pressure Visibility Wind Dir Wind Speed Gust Speed Precip Events Conditions
12:15 AM 30.2 °F - 30.2 °F 100% 29.87 in 5.0 mi Calm Calm - 0.01 in Snow Light Snow
12:35 AM 30.2 °F 26.7 °F 30.2 °F 100% 29.88 in 3.0 mi ESE 3.5 mph - 0.07 in Snow Light Snow
12:55 AM 30.2 °F - 30.2 °F 100% 29.88 in 5.0 mi Calm Calm - 0.09 in Rain Light Freezing Rain
1:15 AM 30.2 °F - 30.2 °F 100% 29.88 in 5.0 mi Calm Calm - N/A   Overcast
1:35 AM 30.2 °F - 30.2 °F 100% 29.89 in 7.0 mi Calm Calm - N/A   Overcast
1:55 AM 30.2 °F - 30.2 °F 100% 29.90 in 7.0 mi Calm Calm - N/A   Overcast
2:15 AM 30.2 °F 25.4 °F 30.2 °F 100% 29.91 in 8.0 mi NW 4.6 mph - N/A   Overcast
2:35 AM 32.0 °F 25.6 °F 32.0 °F 100% 29.91 in 5.0 mi NW 6.9 mph - N/A   Overcast
2:55 AM 32.0 °F 24.8 °F 32.0 °F 100% 29.92 in 5.0 mi NW 8.1 mph - N/A   Overcast
3:15 AM 32.0 °F 23.0 °F 32.0 °F 100% 29.93 in 9.0 mi NW 11.5 mph - N/A   Overcast
3:35 AM 32.0 °F 22.1 °F 32.0 °F 100% 29.94 in 8.0 mi NW 13.8 mph 20.7 mph N/A   Overcast
3:55 AM 32.0 °F 19.8 °F 32.0 °F 100% 29.94 in 10.0 mi NW 20.7 mph 27.6 mph N/A   Overcast
4:15 AM 32.0 °F 18.6 °F 32.0 °F 100% 29.95 in 10.0 mi NW 25.3 mph 32.2 mph N/A   Overcast
4:35 AM 32.0 °F 19.2 °F 32.0 °F 100% 29.96 in 10.0 mi NW 23.0 mph 33.4 mph N/A   Overcast
4:55 AM 32.0 °F 18.9 °F 32.0 °F 100% 29.97 in 10.0 mi NW 24.2 mph 32.2 mph N/A   Overcast
5:15 AM 30.2 °F 15.9 °F 30.2 °F 100% 29.99 in 10.0 mi NW 26.5 mph 36.8 mph N/A   Overcast
5:35 AM 28.4 °F 12.7 °F 28.4 °F 100% 30.00 in 10.0 mi NW 29.9 mph 44.9 mph N/A   Overcast
6:15 AM 28.4 °F 12.5 °F 28.4 °F 100% 30.01 in 10.0 mi NNW 31.1 mph 39.1 mph N/A   Overcast
6:35 AM 30.2 °F 15.2 °F 28.4 °F 93% 30.01 in 10.0 mi NNW 29.9 mph 40.3 mph N/A   Overcast
6:55 AM 30.2 °F 15.9 °F 28.4 °F 93% 30.01 in 10.0 mi NNW 26.5 mph 40.3 mph N/A   Overcast
7:15 AM 30.2 °F 15.2 °F 28.4 °F 93% 30.02 in 10.0 mi NNW 29.9 mph 40.3 mph N/A   Overcast
7:35 AM 30.2 °F 14.9 °F 28.4 °F 93% 30.02 in 10.0 mi NNW 31.1 mph 38.0 mph N/A   Overcast
7:55 AM 30.2 °F 15.7 °F 28.4 °F 93% 30.03 in 10.0 mi NNW 27.6 mph 33.4 mph N/A   Overcast
8:15 AM 30.2 °F 15.7 °F 30.2 °F 100% 30.04 in 10.0 mi NNW 27.6 mph 35.7 mph N/A   Overcast
8:35 AM 30.2 °F 16.5 °F 28.4 °F 93% 30.06 in 10.0 mi NW 24.2 mph 31.1 mph N/A   Mostly Cloudy
8:55 AM 32.0 °F 19.2 °F 30.2 °F 93% 30.07 in 10.0 mi NNW 23.0 mph 36.8 mph N/A   Overcast
9:15 AM 32.0 °F 19.5 °F 32.0 °F 100% 30.09 in 10.0 mi NNW 21.9 mph 28.8 mph N/A   Overcast
9:35 AM 32.0 °F 20.5 °F 30.2 °F 93% 30.10 in 10.0 mi NW 18.4 mph 26.5 mph N/A   Overcast
9:55 AM 32.0 °F 19.2 °F 30.2 °F 93% 30.11 in 10.0 mi NW 23.0 mph 35.7 mph N/A   Overcast
10:15 AM 32.0 °F 19.5 °F 30.2 °F 93% 30.12 in 10.0 mi NW 21.9 mph 32.2 mph N/A   Overcast
10:35 AM 32.0 °F 19.5 °F 30.2 °F 93% 30.13 in 10.0 mi NW 21.9 mph 28.8 mph N/A   Overcast
10:55 AM 32.0 °F 19.5 °F 30.2 °F 93% 30.14 in 10.0 mi NW 21.9 mph 32.2 mph N/A   Overcast
11:15 AM 32.0 °F 19.5 °F 28.4 °F 87% 30.14 in 10.0 mi NW 21.9 mph 32.2 mph N/A   Overcast
11:35 AM 32.0 °F 18.9 °F 28.4 °F 87% 30.14 in 10.0 mi NW 24.2 mph 34.5 mph N/A   Overcast
11:55 AM 30.2 °F 16.5 °F 28.4 °F 93% 30.14 in 10.0 mi NW 24.2 mph 34.5 mph N/A   Overcast
12:15 PM 30.2 °F 17.4 °F 28.4 °F 93% 30.15 in 10.0 mi NW 20.7 mph 32.2 mph N/A   Overcast
12:35 PM 30.2 °F 16.5 °F 28.4 °F 93% 30.14 in 10.0 mi NW 24.2 mph 33.4 mph N/A   Overcast
12:55 PM 30.2 °F 17.1 °F 28.4 °F 93% 30.16 in 10.0 mi NW 21.9 mph 31.1 mph N/A   Overcast
1:15 PM 30.2 °F 17.4 °F 26.6 °F 86% 30.17 in 10.0 mi NW 20.7 mph 31.1 mph N/A   Overcast
1:35 PM 30.2 °F 17.8 °F 28.4 °F 93% 30.18 in 10.0 mi NW 19.6 mph 31.1 mph N/A   Overcast
1:55 PM 28.4 °F 14.4 °F 26.6 °F 93% 30.19 in 10.0 mi NW 23.0 mph 28.8 mph N/A   Overcast
2:15 PM 28.4 °F 13.8 °F 26.6 °F 93% 30.20 in 10.0 mi NW 25.3 mph 31.1 mph N/A   Overcast
2:35 PM 28.4 °F 15.4 °F 24.8 °F 86% 30.21 in 10.0 mi NW 19.6 mph 32.2 mph N/A   Overcast
2:55 PM 28.4 °F 14.7 °F 24.8 °F 86% 30.20 in 10.0 mi NW 21.9 mph 27.6 mph N/A   Scattered Clouds
3:15 PM 26.6 °F 12.7 °F 23.0 °F 86% 30.21 in 10.0 mi NW 20.7 mph 32.2 mph N/A   Clear
3:35 PM 26.6 °F 14.3 °F 23.0 °F 86% 30.23 in 10.0 mi NW 16.1 mph 26.5 mph N/A   Mostly Cloudy
3:55 PM 26.6 °F 12.0 °F 21.2 °F 80% 30.24 in 10.0 mi NW 23.0 mph 34.5 mph N/A   Mostly Cloudy
4:35 PM 24.8 °F 9.3 °F 19.4 °F 80% 30.25 in 10.0 mi NW 24.2 mph 29.9 mph N/A   Partly Cloudy
4:55 PM 24.8 °F 10.3 °F 17.6 °F 74% 30.26 in 10.0 mi NW 20.7 mph 27.6 mph N/A   Clear
5:35 PM 23.0 °F 8.7 °F 17.6 °F 80% 30.28 in 10.0 mi NW 18.4 mph 26.5 mph N/A   Clear
5:55 PM 23.0 °F 8.7 °F 17.6 °F 80% 30.28 in 10.0 mi NW 18.4 mph 24.2 mph N/A   Clear
6:15 PM 23.0 °F 8.3 °F 17.6 °F 80% 30.28 in 10.0 mi NW 19.6 mph 23.0 mph N/A   Clear
6:35 PM 23.0 °F 9.2 °F 17.6 °F 80% 30.29 in 10.0 mi NW 17.3 mph 27.6 mph N/A   Clear
6:55 PM 23.0 °F 9.2 °F 15.8 °F 74% 30.30 in 10.0 mi NW 17.3 mph 26.5 mph N/A   Clear
7:15 PM 23.0 °F 8.7 °F 15.8 °F 74% 30.31 in 10.0 mi NW 18.4 mph 25.3 mph N/A   Clear
7:35 PM 23.0 °F 9.6 °F 15.8 °F 74% 30.31 in 10.0 mi NW 16.1 mph - N/A   Clear
7:55 PM 21.2 °F 6.0 °F 15.8 °F 80% 30.31 in 10.0 mi NW 19.6 mph 25.3 mph N/A   Clear
8:15 PM 21.2 °F 6.4 °F 14.0 °F 74% 30.31 in 10.0 mi NW 18.4 mph 25.3 mph N/A   Clear
8:35 PM 21.2 °F 6.8 °F 14.0 °F 74% 30.31 in 10.0 mi NW 17.3 mph 21.9 mph N/A   Clear
8:55 PM 21.2 °F 6.8 °F 14.0 °F 74% 30.31 in 10.0 mi NW 17.3 mph 21.9 mph N/A   Clear
9:15 PM 19.4 °F 5.5 °F 14.0 °F 80% 30.31 in 10.0 mi NW 15.0 mph 20.7 mph N/A   Clear
10:15 PM 19.4 °F 6.6 °F 12.2 °F 74% 30.31 in 10.0 mi NW 12.7 mph - N/A   Clear
10:35 PM 19.4 °F 6.6 °F 14.0 °F 80% 30.31 in 10.0 mi NW 12.7 mph - N/A   Clear
10:55 PM 19.4 °F 6.6 °F 12.2 °F 74% 30.31 in 10.0 mi NW 12.7 mph - N/A   Clear
11:15 PM 19.4 °F 7.2 °F 12.2 °F 74% 30.31 in 10.0 mi NNW 11.5 mph - N/A   Clear
11:35 PM 17.6 °F 6.4 °F 12.2 °F 79% 30.31 in 10.0 mi NW 9.2 mph - N/A   Clear
11:55 PM 17.6 °F 5.7 °F 12.2 °F 79% 30.31 in 10.0 mi NW 10.4 mph - N/A   Clear